This is the latest recevied weather packets stored in our database for station/object ON7SD-5. If no packets are shown the sender has not sent any weather packets the latest 1 day(s).
| Time | Temp. | Humidity | Pressure | Rain* | Wind** | Luminosity | Snow |
|---|---|---|---|---|---|---|---|
| 1777968127 | 12.22° C | 84% | 1009.8 hPa | 0 mm | 0.45 m/s, 48° | 114 W/m² | - |
| 1777967827 | 12.22° C | 84% | 1009.7 hPa | 0 mm | 0.89 m/s, 50° | 158 W/m² | - |
| 1777967527 | 12.22° C | 84% | 1009.7 hPa | 0 mm | 0.89 m/s, 50° | 158 W/m² | - |
| 1777967227 | 12.22° C | 84% | 1009.7 hPa | 0 mm | 0.89 m/s, 53° | 160 W/m² | - |
| 1777966927 | 12.22° C | 85% | 1009.7 hPa | 0 mm | 0.89 m/s, 17° | 163 W/m² | - |
| 1777966627 | 12.22° C | 84% | 1009.8 hPa | 0 mm | 0.89 m/s, 17° | 172 W/m² | - |
| 1777966327 | 12.22° C | 84% | 1009.8 hPa | 0 mm | 0.89 m/s, 21° | 155 W/m² | - |
| 1777966027 | 12.22° C | 84% | 1009.8 hPa | 0 mm | 0.89 m/s, 49° | 160 W/m² | - |
| 1777965727 | 12.22° C | 83% | 1009.9 hPa | 0 mm | 0.89 m/s, 49° | 156 W/m² | - |
| 1777965427 | 12.22° C | 84% | 1009.9 hPa | 0 mm | 0.89 m/s, 63° | 155 W/m² | - |
| 1777965127 | 12.22° C | 84% | 1009.9 hPa | 0 mm | 0.89 m/s, 83° | 128 W/m² | - |
| 1777964827 | 12.22° C | 84% | 1010 hPa | 0 mm | 1.34 m/s, 84° | 165 W/m² | - |
| 1777964527 | 11.67° C | 84% | 1009.9 hPa | 0 mm | 1.34 m/s, 73° | 142 W/m² | - |
| 1777964227 | 12.22° C | 84% | 1009.9 hPa | 0 mm | 0.89 m/s, 84° | 91 W/m² | - |
| 1777963927 | 11.67° C | 84% | 1010 hPa | 0 mm | 0.89 m/s, 26° | 86 W/m² | - |
| 1777963627 | 11.67° C | 84% | 1010 hPa | 0 mm | 0.45 m/s, 46° | 97 W/m² | - |
| 1777963327 | 11.67° C | 84% | 1010 hPa | 0 mm | 0.89 m/s, 43° | 97 W/m² | - |
| 1777963027 | 11.67° C | 84% | 1010 hPa | 0 mm | 0.89 m/s, 43° | 79 W/m² | - |
| 1777962727 | 11.67° C | 85% | 1010 hPa | 0 mm | 0.45 m/s, 38° | 83 W/m² | - |
| 1777962427 | 11.67° C | 85% | 1010 hPa | 0 mm | 0.45 m/s, 38° | 83 W/m² | - |
| 1777962127 | 11.67° C | 85% | 1010 hPa | 0 mm | 0.45 m/s, 44° | 79 W/m² | - |
| 1777961827 | 11.67° C | 85% | 1010.1 hPa | 0 mm | 0.45 m/s, 44° | 58 W/m² | - |
| 1777961527 | 11.67° C | 85% | 1010 hPa | 0 mm | 0.45 m/s, 47° | 65 W/m² | - |
| 1777961227 | 11.67° C | 85% | 1010 hPa | 0 mm | 0.45 m/s, 46° | 63 W/m² | - |
| 1777960927 | 11.67° C | 86% | 1010.1 hPa | 0 mm | 0 m/s | 63 W/m² | - |
* Rain latest hour (hover to see other rain measurements)
** Current wind speed in m/s (hover to see current wind gust speed)